Peoria, IL

11:06 PM CDT on July 27, 2017 (GMT -0500)
Greater Peoria Regional

Weather History for KPIA - March, 2012

Change the Weather History Date:

Wednesday, March 14, 2012

  Actual Average Record
Temperature  
Mean Temperature 68 °F 40 °F  
Max Temperature 81 °F 50 °F 81 °F (2012)
Min Temperature 54 °F 30 °F 6 °F (1993)
Degree Days  
Heating Degree Days 0 25  
Month to date heating degree days 266 389  
Since 1 July heating degree days 4145 4905  
Cooling Degree Days 3 0  
Month to date cooling degree days 3 0  
Year to date cooling degree days 3 0  
Growing Degree Days 18 (Base 50)    
Moisture  
Dew Point 56 °F    
Average Humidity 69    
Maximum Humidity 93    
Minimum Humidity 45    
Precipitation  
Precipitation 0.00 in 0.09 in 2.88 in (1944)
Month to date precipitation 1.10 1.17  
Year to date precipitation 4.04 4.74  
Snow  
Snow 0.00 in 0.10 in 4.10 in (1956)
Month to date snowfall 1.1 1.6  
Since 1 July snowfall 11.5 22.9  
Snow Depth 0.00 in    
Sea Level Pressure  
Sea Level Pressure 29.97 in    
Wind  
Wind Speed 11 mph (SSW)    
Max Wind Speed 25 mph    
Max Gust Speed 31 mph    
Visibility 10 miles    
Events      
T = Trace of Precipitation, MM = Missing Value Source: NWS Daily Summary

Daily Weather History Graph

Daily Weather History Graph

Search for Another Location

Airport or City:

Trip Planner

Search our weather history database for the weather conditions in past years. The results will help you decide how hot, cold, wet, or windy it might be!

Date:

Astronomy

Mar. 14, 2012 Rise Set
Actual Time 7:11 AM CDT 7:05 PM CDT
Civil Twilight 6:43 AM CDT 7:32 PM CDT
Nautical Twilight 6:12 AM CDT 8:04 PM CDT
Astronomical Twilight 5:40 AM CDT 8:36 PM CDT
Moon 1:42 AM CDT (3/14) 11:20 AM CDT (3/14)
Length of Visible Light 12h 48m
Length of Day
11h 53m
Waning Gibbous, 54% of the Moon is Illuminated
Mar 14
Waning Gibbous
Mar 14
Last Quarter
Mar 22
New
Mar 30
First Quarter
Apr 6
Full

Hourly Weather History & Observations

Time (CDT) Temp. Heat Index Dew Point Humidity Pressure Visibility Wind Dir Wind Speed Gust Speed Precip Events Conditions
12:54 AM 62.1 °F - 48.0 °F 60% 30.01 in 10.0 mi South 10.4 mph - N/A   Clear
1:54 AM 60.1 °F - 50.0 °F 69% 30.01 in 10.0 mi South 9.2 mph - N/A   Clear
2:54 AM 57.9 °F - 51.1 °F 78% 30.01 in 10.0 mi South 9.2 mph - N/A   Clear
3:54 AM 57.0 °F - 52.0 °F 83% 30.00 in 8.0 mi South 9.2 mph - N/A   Clear
4:54 AM 55.9 °F - 52.0 °F 87% 30.00 in 10.0 mi South 8.1 mph - N/A   Clear
5:54 AM 54.0 °F - 52.0 °F 93% 30.01 in 10.0 mi South 6.9 mph - N/A   Clear
6:54 AM 54.0 °F - 52.0 °F 93% 30.01 in 8.0 mi South 6.9 mph - N/A   Clear
7:54 AM 55.9 °F - 54.0 °F 93% 30.02 in 7.0 mi South 8.1 mph - N/A   Clear
8:54 AM 60.1 °F - 55.0 °F 83% 30.03 in 10.0 mi SSW 10.4 mph - N/A   Clear
9:54 AM 64.9 °F - 57.0 °F 75% 30.02 in 10.0 mi South 11.5 mph - N/A   Clear
10:54 AM 71.1 °F - 59.0 °F 66% 30.00 in 10.0 mi SSW 11.5 mph - N/A   Clear
11:54 AM 73.9 °F - 61.0 °F 64% 29.99 in 10.0 mi SSW 16.1 mph - N/A   Scattered Clouds
12:54 PM 77.0 °F - 61.0 °F 58% 29.97 in 10.0 mi SW 13.8 mph 21.9 mph N/A   Mostly Cloudy
1:54 PM 78.1 °F - 59.0 °F 52% 29.95 in 10.0 mi SW 17.3 mph 24.2 mph N/A   Partly Cloudy
2:54 PM 80.1 °F 80.7 °F 59.0 °F 48% 29.92 in 10.0 mi SW 17.3 mph 26.5 mph N/A   Partly Cloudy
3:54 PM 80.1 °F 80.4 °F 57.0 °F 45% 29.91 in 10.0 mi SW 21.9 mph 26.5 mph N/A   Partly Cloudy
4:54 PM 81.0 °F 81.1 °F 57.9 °F 45% 29.91 in 10.0 mi SW 16.1 mph 24.2 mph N/A   Partly Cloudy
5:54 PM 79.0 °F - 57.9 °F 48% 29.90 in 10.0 mi SW 17.3 mph 24.2 mph N/A   Partly Cloudy
6:54 PM 75.9 °F - 57.0 °F 52% 29.92 in 10.0 mi SSW 11.5 mph - N/A   Clear
7:54 PM 71.1 °F - 57.9 °F 63% 29.92 in 10.0 mi SSW 8.1 mph - N/A   Clear
8:54 PM 69.1 °F - 57.0 °F 65% 29.93 in 10.0 mi South 8.1 mph - N/A   Clear
9:54 PM 69.1 °F - 57.0 °F 65% 29.95 in 10.0 mi South 9.2 mph - N/A   Partly Cloudy
10:54 PM 70.0 °F - 59.0 °F 68% 29.95 in 10.0 mi SW 10.4 mph - N/A   Overcast
11:54 PM 68.0 °F - 59.0 °F 73% 29.96 in 10.0 mi WSW 5.8 mph - N/A   Scattered Clouds